EZY41RF LPMA-EGGW

Flight info

Callsign EZY41RF
Flight time N/A
Altitude 36000
Route DEGU1E DEGUN DCT GALPA UN728 DEMOS N728 KORUL DCT TOFLO DCT BASIK DCT ORIST L982 TELTU TELT1N
Aircraft A320/M-SDE3FGHIRWY/LB1

Departure

Time 2026-05-06 11:17
Airport Cristiano Ronaldo International Airport (LPMA)

Arrival

Time N/A
Airport London Luton Airport (EGGW)
Time Latitude Longitude Altitude Speed Heading
2026-05-06 10:23 32.69412 -16.77593 176 ft 0 kts 138°
2026-05-06 11:07 32.69414 -16.77595 176 ft 1 kts 138°
2026-05-06 11:07 32.69427 -16.77609 176 ft 3 kts 138°
2026-05-06 11:07 32.69440 -16.77623 176 ft 3 kts 149°
2026-05-06 11:08 32.69457 -16.77631 176 ft 3 kts 183°
2026-05-06 11:08 32.69476 -16.77625 176 ft 3 kts 214°
2026-05-06 11:08 32.69489 -16.77613 176 ft 1 kts 226°
2026-05-06 11:08 32.69492 -16.77608 176 ft 0 kts 226°
2026-05-06 11:11 32.69463 -16.77643 176 ft 10 kts 226°
2026-05-06 11:11 32.69426 -16.77690 176 ft 7 kts 226°
2026-05-06 11:12 32.69397 -16.77725 176 ft 5 kts 226°
2026-05-06 11:12 32.69377 -16.77750 176 ft 3 kts 226°
2026-05-06 11:12 32.69364 -16.77767 176 ft 4 kts 226°
2026-05-06 11:12 32.69337 -16.77800 176 ft 6 kts 226°
2026-05-06 11:13 32.69314 -16.77828 176 ft 4 kts 226°
2026-05-06 11:13 32.69301 -16.77847 176 ft 2 kts 236°
2026-05-06 11:13 32.69297 -16.77856 176 ft 1 kts 246°
2026-05-06 11:13 32.69297 -16.77857 176 ft 0 kts 247°
2026-05-06 11:14 32.69292 -16.77877 176 ft 10 kts 257°
2026-05-06 11:14 32.69285 -16.78016 176 ft 23 kts 253°
2026-05-06 11:14 32.69185 -16.78154 176 ft 21 kts 225°
2026-05-06 11:14 32.69086 -16.78270 176 ft 19 kts 224°
2026-05-06 11:15 32.69006 -16.78362 176 ft 13 kts 224°
2026-05-06 11:15 32.68928 -16.78401 176 ft 11 kts 195°
2026-05-06 11:15 32.68909 -16.78455 176 ft 8 kts 321°
2026-05-06 11:15 32.68949 -16.78430 176 ft 8 kts 58°
2026-05-06 11:16 32.68968 -16.78405 176 ft 0 kts 45°
2026-05-06 11:16 32.69104 -16.78248 176 ft 66 kts 44°
2026-05-06 11:17 32.69612 -16.77654 176 ft 136 kts 44°
2026-05-06 11:17 32.70380 -16.76732 508 ft 163 kts 45°
2026-05-06 11:17 32.70985 -16.75593 1385 ft 167 kts 67°
2026-05-06 11:17 32.71062 -16.74160 2081 ft 187 kts 101°
2026-05-06 11:18 32.70600 -16.72657 2472 ft 202 kts 106°
2026-05-06 11:18 32.70069 -16.71009 2712 ft 225 kts 108°
2026-05-06 11:18 32.69485 -16.69180 3002 ft 248 kts 107°
2026-05-06 11:18 32.68856 -16.67214 3592 ft 259 kts 107°
2026-05-06 11:19 32.68208 -16.65192 4324 ft 265 kts 107°
2026-05-06 11:19 32.67549 -16.63128 5085 ft 270 kts 108°
2026-05-06 11:19 32.66876 -16.61012 5769 ft 278 kts 109°
2026-05-06 11:19 32.66187 -16.58845 6466 ft 284 kts 108°
2026-05-06 11:20 32.65766 -16.56543 7085 ft 287 kts 88°
2026-05-06 11:20 32.66061 -16.54215 7770 ft 287 kts 67°
2026-05-06 11:20 32.67029 -16.52170 8467 ft 285 kts 46°
2026-05-06 11:20 32.68437 -16.50511 9175 ft 286 kts 41°
2026-05-06 11:21 32.69888 -16.48873 9889 ft 290 kts 40°
2026-05-06 11:21 32.71362 -16.47201 10410 ft 300 kts 41°
2026-05-06 11:21 32.72929 -16.45425 10563 ft 323 kts 41°
2026-05-06 11:21 32.74607 -16.43520 10732 ft 342 kts 41°
2026-05-06 11:22 32.76345 -16.41535 11214 ft 350 kts 41°
2026-05-06 11:22 32.78108 -16.39513 11796 ft 354 kts 41°
2026-05-06 11:22 32.79892 -16.37466 12387 ft 358 kts 41°
2026-05-06 11:22 32.81694 -16.35396 12992 ft 362 kts 41°
2026-05-06 11:23 32.83499 -16.33325 13545 ft 367 kts 41°
2026-05-06 11:23 32.85348 -16.31206 14099 ft 371 kts 41°
2026-05-06 11:23 32.87218 -16.29066 14614 ft 375 kts 41°
2026-05-06 11:23 32.89104 -16.26907 15201 ft 377 kts 41°
2026-05-06 11:24 32.90998 -16.24737 15764 ft 379 kts 41°
2026-05-06 11:24 32.92903 -16.22550 16309 ft 382 kts 41°
2026-05-06 11:24 32.94820 -16.20342 16844 ft 385 kts 41°
2026-05-06 11:24 32.96750 -16.18122 17360 ft 387 kts 41°
2026-05-06 11:25 32.98695 -16.15887 17872 ft 390 kts 41°
2026-05-06 11:25 33.00657 -16.13633 18386 ft 393 kts 41°
2026-05-06 11:25 33.02635 -16.11357 18823 ft 396 kts 41°
2026-05-06 11:25 33.04616 -16.09075 19274 ft 397 kts 41°
2026-05-06 11:26 33.06608 -16.06779 19735 ft 399 kts 41°
2026-05-06 11:26 33.08603 -16.04472 20179 ft 401 kts 41°
2026-05-06 11:26 33.10605 -16.02155 20632 ft 402 kts 41°
2026-05-06 11:26 33.12620 -15.99824 21073 ft 404 kts 40°
2026-05-06 11:27 33.14647 -15.97485 21461 ft 407 kts 41°
2026-05-06 11:27 33.16684 -15.95132 21863 ft 410 kts 41°
2026-05-06 11:27 33.18736 -15.92757 22296 ft 411 kts 40°
2026-05-06 11:27 33.20790 -15.90375 22747 ft 412 kts 40°
2026-05-06 11:28 33.22855 -15.87981 23162 ft 414 kts 40°
2026-05-06 11:28 33.24922 -15.85581 23560 ft 415 kts 40°
2026-05-06 11:28 33.26999 -15.83171 23908 ft 417 kts 40°
2026-05-06 11:28 33.29082 -15.80751 24227 ft 419 kts 40°
2026-05-06 11:29 33.31179 -15.78309 24541 ft 421 kts 40°
2026-05-06 11:29 33.33281 -15.75862 24856 ft 423 kts 40°
2026-05-06 11:29 33.35391 -15.73405 25147 ft 425 kts 40°
2026-05-06 11:29 33.37515 -15.70931 25439 ft 427 kts 40°
2026-05-06 11:30 33.39642 -15.68447 25732 ft 428 kts 40°
2026-05-06 11:30 33.41791 -15.65970 26015 ft 429 kts 37°
2026-05-06 11:30 33.44115 -15.63736 26304 ft 429 kts 34°
2026-05-06 11:30 33.46485 -15.61529 26517 ft 433 kts 34°
2026-05-06 11:31 33.48868 -15.59309 26800 ft 435 kts 34°
2026-05-06 11:31 33.51231 -15.57100 27094 ft 437 kts 34°
2026-05-06 11:31 33.53630 -15.54851 27377 ft 438 kts 34°
2026-05-06 11:31 33.56036 -15.52592 27656 ft 440 kts 34°
2026-05-06 11:32 33.58452 -15.50323 27922 ft 442 kts 34°
2026-05-06 11:32 33.60089 -15.48787 28100 ft 443 kts 34°
2026-05-06 11:32 33.62524 -15.46500 28351 ft 445 kts 34°
2026-05-06 11:32 33.65760 -15.43458 28687 ft 447 kts 34°
2026-05-06 11:33 33.68214 -15.41149 28927 ft 449 kts 34°
2026-05-06 11:33 33.69874 -15.39588 29084 ft 450 kts 34°
2026-05-06 11:33 33.72345 -15.37262 29322 ft 451 kts 34°
2026-05-06 11:33 33.74825 -15.34926 29553 ft 453 kts 34°
2026-05-06 11:34 33.77310 -15.32585 29780 ft 455 kts 34°
2026-05-06 11:34 33.79763 -15.30271 30086 ft 454 kts 34°
2026-05-06 11:34 33.82242 -15.27927 30417 ft 453 kts 34°
2026-05-06 11:34 33.84709 -15.25592 30708 ft 451 kts 34°
2026-05-06 11:35 33.87174 -15.23257 30993 ft 451 kts 34°
2026-05-06 11:35 33.89635 -15.20927 31263 ft 450 kts 34°
2026-05-06 11:35 33.92095 -15.18598 31527 ft 449 kts 34°
2026-05-06 11:35 33.94549 -15.16273 31799 ft 448 kts 34°
2026-05-06 11:36 33.96997 -15.13952 32065 ft 448 kts 34°
2026-05-06 11:36 33.99438 -15.11630 32340 ft 447 kts 34°
2026-05-06 11:36 34.01880 -15.09298 32605 ft 446 kts 34°
2026-05-06 11:36 34.04311 -15.06975 32873 ft 446 kts 34°
2026-05-06 11:37 34.06743 -15.04657 33158 ft 445 kts 34°
2026-05-06 11:37 34.09169 -15.02347 33415 ft 444 kts 34°
2026-05-06 11:37 34.11600 -15.00035 33673 ft 444 kts 34°
2026-05-06 11:37 34.14026 -14.97725 33929 ft 444 kts 34°
2026-05-06 11:38 34.16441 -14.95414 34176 ft 443 kts 34°
2026-05-06 11:38 34.18851 -14.93106 34399 ft 443 kts 34°
2026-05-06 11:38 34.21272 -14.90787 34574 ft 444 kts 34°
2026-05-06 11:38 34.23694 -14.88466 34750 ft 444 kts 34°
2026-05-06 11:39 34.26110 -14.86149 34942 ft 444 kts 34°
2026-05-06 11:39 34.28528 -14.83829 35134 ft 443 kts 34°
2026-05-06 11:39 34.30943 -14.81512 35333 ft 443 kts 34°
2026-05-06 11:39 34.33357 -14.79196 35513 ft 442 kts 34°
2026-05-06 11:40 34.35769 -14.76885 35713 ft 442 kts 34°
2026-05-06 11:40 34.38180 -14.74575 35899 ft 441 kts 34°
2026-05-06 11:40 34.40653 -14.72501 36070 ft 436 kts 25°
2026-05-06 11:41 34.46007 -14.69068 36151 ft 434 kts 24°
2026-05-06 11:41 34.51357 -14.65668 36152 ft 434 kts 23°
2026-05-06 11:42 34.56705 -14.62260 36151 ft 434 kts 24°
2026-05-06 11:42 34.62051 -14.58846 36172 ft 434 kts 23°
2026-05-06 11:43 34.67388 -14.55437 36156 ft 433 kts 24°
2026-05-06 11:43 34.72725 -14.52010 36133 ft 434 kts 24°
2026-05-06 11:44 34.80727 -14.46872 36132 ft 436 kts 24°
2026-05-06 11:44 34.86096 -14.43425 36136 ft 436 kts 24°
2026-05-06 11:45 34.91471 -14.39972 36160 ft 437 kts 24°
2026-05-06 11:45 34.96851 -14.36507 36155 ft 437 kts 24°
2026-05-06 11:46 35.02225 -14.33041 36154 ft 437 kts 24°
2026-05-06 11:46 35.07594 -14.29574 36151 ft 437 kts 24°
2026-05-06 11:47 35.12964 -14.26102 36150 ft 437 kts 24°
2026-05-06 11:47 35.18330 -14.22624 36150 ft 437 kts 24°
2026-05-06 11:48 35.23701 -14.19134 36144 ft 437 kts 24°
2026-05-06 11:48 35.29082 -14.15629 36130 ft 439 kts 24°
2026-05-06 11:49 35.34477 -14.12117 36128 ft 440 kts 24°
2026-05-06 11:49 35.39882 -14.08595 36130 ft 440 kts 24°
2026-05-06 11:50 35.45291 -14.05067 36148 ft 440 kts 24°
2026-05-06 11:50 35.50702 -14.01526 36145 ft 440 kts 24°
2026-05-06 11:51 35.56114 -13.97984 36142 ft 441 kts 24°
2026-05-06 11:51 35.61521 -13.94435 36141 ft 441 kts 24°
2026-05-06 11:52 35.66930 -13.90879 36138 ft 441 kts 24°
2026-05-06 11:52 35.72341 -13.87319 36159 ft 441 kts 24°
2026-05-06 11:53 35.77755 -13.83754 36149 ft 442 kts 24°
2026-05-06 11:53 35.83174 -13.80173 36127 ft 443 kts 24°
2026-05-06 11:54 35.88584 -13.76583 36117 ft 444 kts 24°
2026-05-06 11:54 35.94034 -13.72972 36119 ft 445 kts 24°
2026-05-06 11:55 35.99499 -13.69345 36137 ft 446 kts 24°
2026-05-06 11:55 36.04961 -13.65718 36134 ft 446 kts 24°
2026-05-06 11:56 36.10429 -13.62085 36132 ft 446 kts 24°
2026-05-06 11:56 36.15900 -13.58449 36131 ft 446 kts 24°
2026-05-06 11:57 36.21368 -13.54795 36134 ft 446 kts 24°
2026-05-06 11:57 36.26822 -13.51132 36145 ft 446 kts 24°
2026-05-06 11:58 36.32285 -13.47475 36134 ft 447 kts 24°
2026-05-06 11:58 36.37765 -13.43801 36120 ft 448 kts 24°
2026-05-06 11:59 36.43254 -13.40110 36107 ft 449 kts 25°
2026-05-06 11:59 36.48756 -13.36404 36131 ft 450 kts 25°
2026-05-06 12:00 36.54262 -13.32693 36133 ft 450 kts 24°
2026-05-06 12:00 36.59773 -13.28983 36128 ft 450 kts 25°
2026-05-06 12:01 36.65277 -13.25256 36122 ft 450 kts 25°
2026-05-06 12:01 36.70783 -13.21517 36135 ft 450 kts 25°
2026-05-06 12:02 36.76244 -13.17813 36141 ft 450 kts 25°
2026-05-06 12:02 36.81746 -13.14079 36138 ft 450 kts 25°
2026-05-06 12:03 36.87249 -13.10342 36124 ft 451 kts 25°
2026-05-06 12:03 36.92773 -13.06567 36115 ft 452 kts 25°
2026-05-06 12:04 36.98288 -13.02781 36108 ft 453 kts 25°
2026-05-06 12:04 37.03816 -12.98991 36128 ft 453 kts 25°
2026-05-06 12:05 37.09348 -12.95200 36126 ft 453 kts 25°
2026-05-06 12:05 37.14876 -12.91407 36124 ft 453 kts 25°
2026-05-06 12:06 37.20399 -12.87612 36121 ft 453 kts 25°
2026-05-06 12:06 37.25924 -12.83805 36137 ft 453 kts 25°
2026-05-06 12:07 37.31448 -12.79996 36134 ft 453 kts 25°
2026-05-06 12:07 37.36971 -12.76175 36132 ft 453 kts 25°
2026-05-06 12:08 37.42493 -12.72343 36115 ft 454 kts 25°
2026-05-06 12:08 37.47992 -12.68532 36110 ft 454 kts 25°
2026-05-06 12:09 37.53526 -12.64693 36127 ft 454 kts 25°
2026-05-06 12:09 37.59059 -12.60835 36125 ft 454 kts 25°
2026-05-06 12:10 37.64590 -12.56976 36123 ft 454 kts 25°
2026-05-06 12:10 37.70119 -12.53120 36122 ft 454 kts 25°
2026-05-06 12:11 37.75644 -12.49254 36118 ft 454 kts 25°
2026-05-06 12:11 37.81174 -12.45386 36114 ft 454 kts 25°
2026-05-06 12:12 37.86693 -12.41509 36112 ft 454 kts 25°
2026-05-06 12:12 37.92221 -12.37621 36111 ft 454 kts 25°
2026-05-06 12:13 37.97750 -12.33716 36105 ft 455 kts 26°
2026-05-06 12:13 38.03283 -12.29809 36111 ft 455 kts 25°
2026-05-06 12:14 38.08818 -12.25895 36109 ft 455 kts 25°
2026-05-06 12:14 38.14358 -12.21977 36106 ft 456 kts 26°
2026-05-06 12:15 38.19889 -12.18039 36107 ft 456 kts 26°
2026-05-06 12:15 38.24490 -12.14771 36100 ft 456 kts 25°
2026-05-06 12:16 38.30038 -12.10831 36121 ft 456 kts 25°
2026-05-06 12:16 38.35568 -12.06894 36120 ft 456 kts 25°
2026-05-06 12:17 38.41103 -12.02940 36119 ft 456 kts 25°
2026-05-06 12:17 38.46635 -11.98975 36115 ft 456 kts 26°
2026-05-06 12:18 38.52135 -11.95021 36121 ft 456 kts 25°
2026-05-06 12:18 38.57670 -11.91055 36115 ft 456 kts 25°
2026-05-06 12:19 38.63208 -11.87083 36108 ft 456 kts 26°
2026-05-06 12:19 38.68740 -11.83086 36106 ft 456 kts 26°
2026-05-06 12:20 38.74273 -11.79092 36102 ft 456 kts 25°
2026-05-06 12:20 38.79804 -11.75094 36118 ft 457 kts 25°
2026-05-06 12:21 38.85339 -11.71080 36107 ft 457 kts 26°
2026-05-06 12:21 38.90862 -11.67065 36102 ft 456 kts 25°
2026-05-06 12:22 38.96395 -11.63043 36099 ft 457 kts 25°
2026-05-06 12:22 39.01921 -11.59022 36108 ft 457 kts 25°
2026-05-06 12:23 39.07444 -11.54989 36101 ft 457 kts 26°
2026-05-06 12:23 39.12974 -11.50933 36097 ft 457 kts 26°
2026-05-06 12:24 39.18496 -11.46881 36095 ft 457 kts 26°
2026-05-06 12:24 39.24021 -11.42825 36093 ft 457 kts 26°
2026-05-06 12:25 39.29553 -11.38759 36104 ft 457 kts 25°
2026-05-06 12:25 39.35084 -11.34698 36096 ft 457 kts 25°
2026-05-06 12:26 39.40612 -11.30621 36096 ft 458 kts 25°
2026-05-06 12:26 39.46150 -11.26534 36088 ft 458 kts 26°
2026-05-06 12:27 39.51657 -11.22455 36089 ft 459 kts 26°
2026-05-06 12:27 39.57235 -11.18305 36084 ft 460 kts 26°
2026-05-06 12:28 39.62785 -11.14180 36083 ft 460 kts 26°
2026-05-06 12:28 39.68334 -11.10053 36079 ft 460 kts 26°
2026-05-06 12:29 39.73892 -11.05905 36104 ft 460 kts 26°
2026-05-06 12:29 39.79409 -11.01783 36098 ft 460 kts 26°
2026-05-06 12:30 39.84957 -10.97620 36091 ft 460 kts 26°
2026-05-06 12:30 39.90514 -10.93451 36083 ft 460 kts 26°
2026-05-06 12:31 39.96071 -10.89292 36081 ft 461 kts 26°
2026-05-06 12:31 40.01624 -10.85117 36089 ft 461 kts 26°
2026-05-06 12:32 40.07173 -10.80923 36086 ft 461 kts 26°
2026-05-06 12:32 40.12725 -10.76715 36080 ft 461 kts 26°
2026-05-06 12:33 40.18270 -10.72510 36080 ft 461 kts 26°
2026-05-06 12:33 40.23825 -10.68297 36074 ft 461 kts 26°